COSMOS 1275 DEB, 12665

Orbit data source: Space-Track

COSMOS 1275 DEB, 12665 is space debris in LEO originally from a launch on Thu, 04 Jun 1981 UTC launched from the Plesetsk Missile And Space Complex (PKMTR). Debris objects in space refer to the collection of defunct objects orbiting the Earth. Examples of debris include non-operational satellites, rocket bodies, and fragments generated from explosions, collisions, or faulty payload assembly.

Loading next visibility...
Identifier
12665, 1981-053V
Orbit
LEO
Country
Flag of CISCIS
Related business
Manufacturer
Unknown
Mission
Spacecraft
Bus & Motor
Unknown
Mass
Unknown
Launch date (UTC)
1981-06-04 (44 years ago)
Launch vehicle
Unknown
Launch site
Plesetsk Missile And Space Complex (PKMTR)
Object type
Payload
Rocket body
Debris
Shape & HBR
Unknown shape, 0.1 m
Radar Cross Section
Small (<0.1 m²)

Expand to show TLE details & history
Last TLE update: 11 hours ago

TLE from 11 hours ago
0 COSMOS 1275 DEB
1 12665U 81053V   25311.11128822  .00000421  00000-0  36578-3 0  9993
2 12665  82.9677 343.6916 0035901  55.9050   0.3990 13.83550942228615
Epoch: 2025-11-07T02:40Z
TLE epoch observation values (Epoch: 2025-11-07T02:40:15.302Z)
Latitude
55.76347°
Longitude
-92.54385°
Altitude
934.278 km
Speed
7.403 km/s
True Right ascension
23h 36m 19s
True Declination
55° 36' 26"
Sunlit
Object was in full shadow at epoch
Visualization orbit readout
Latitude
Unknown
Longitude
Unknown
Altitude
Unknown
Speed
Unknown
Apparent Right ascension
Unknown
Apparent Declination
Unknown
Sunlit
N/A
Visualization observer readout
Local Sidereal Time
10:00:06
Azimuth
Unknown
Elevation
Unknown
Doppler factor
Unknown
Orbital elements
Apogee altitude
974.758 km
Perigee altitude
922.152 km
Semi-major axis
7,326.592 km
Eccentricity
0.00359
Inclination
82.9677°
RAAN
343.6916°
Arg. of periapsis
55.905°
True anomaly
0.40188°
Mean anomaly
0.399°
Eccentric anomaly
0.40044°
Mean motion
3.46091 °/min
Orbital period
104.02 mins
BSTAR
0.00036578
Loading maneuver chart data...
Computing Atmospheric mass density...
Loading historical data...
Loading historical data...
Loading historical data...
Loading historical data...
Loading historical data...
Loading historical data...
Loading historical data...

Documentation

Showing up to 5 results
|